Find Kuiper-00053

NORAD ID: 64513 Int'l Des: 2025-134 Owner: KUIP Country: US Constellation: amazon-leo operational
LEOCIRCULAR

現在のビュー

3D地球を読み込み中...

About Kuiper-00053

Kuiper-00053 (NORAD 64513) is a amazon-leo constellation satellite launched Jun 23, 2025 by KUIP of US. It operates in LEO, CIRCULAR orbit with a mass of 490.00 kg.

次回通過

Passes for default location (London). Set your location on the main map for personalized predictions.

高度履歴

Loading altitude history...

軌道要素

1 64513U 25134P 26263.88040047 .00001330 00000-0 19545-3 0 9998
2 64513 51.9002 77.9964 0002589 121.8307 238.2909 14.81717184 69141
Epoch: Sep 20, 2026 • Age: 23 hours

現在のステータス

高度 623.4 km
遠地点 / 近地点 N/A
速度 7.55 km/s
衛星直下点 1.04°N, 56.8°W
打ち上げ日 Jun 23, 2025
運用期間 1.2 years
タイプ internet

技術仕様

分類 Payload
質量 490.00 kg
形状 ? Box + 2 pan
製造者 KUIP
バスタイプ Kuiper
フェーズステータス In Orbit
所有者/国 KUIP/US

Most Searched